Location: Honolulu
(21.3069°N, 157.8583°W)
Time: 06:14:37
(UTC-10:00)

Vanguard 2 Rocket - Visible Passes

Search period start: 14 May 2026 00:00
Search period end: 24 May 2026 00:00
Orbit: 553 x 3286 km, 32.9° (Epoch: 13 May)

Date Brightness Start Highest point End Pass type
(mag) Time Alt. Az. Time Alt. Az. Time Alt. Az.
14 May 9.9 19:42:32 10° WNW 19:57:41 33° SW 20:08:10 10° SSE visible
15 May 10.3 21:00:24 10° WSW 21:05:15 12° SW 21:09:31 10° SSW visible
16 May 10.1 19:46:13 10° W 19:59:24 25° SW 20:09:18 10° S visible
18 May 10.4 19:51:03 10° W 20:01:13 18° SW 20:09:33 10° SSW visible
20 May 10.6 19:58:50 10° WSW 20:03:15 11° SW 20:07:20 10° SSW visible
23 May 8.8 05:18:38 10° SSE 05:21:00 13° SE 05:23:48 10° ESE visible
